Location: New Town
(33.2710°N, 90.7534°W)
Time: 12:29:11
(UTC+00:00)

Explorer 11/Cluster Stage 4 - Pass Details

Date: 20 May 2021
Orbit: 467 x 1257 km, 28.8° (Epoch: 14 June)

Event Time Altitude Azimuth Distance (km) Brightness Sun altitude
Rises 00:37:05 0° 255° (WSW) 3,671 11.0 3.4°
Reaches altitude 10° 00:39:36 10° 251° (WSW) 2,829 10.3 2.9°
Maximum altitude 00:46:37 61° 173° (S) 1,302 7.6 1.6°
Drops below altitude 10° 00:54:38 10° 96° (E) 3,211 9.1 0.0°
Sets 00:57:40 0° 93° (E) 4,196 9.7 -0.5°
